TimeEDT,TemperatureF,Dew PointF,Humidity,Sea Level PressureIn,VisibilityMPH,Wind Direction,Wind SpeedMPH,Gust SpeedMPH,PrecipitationIn,Events,Conditions,WindDirDegrees,DateUTC
12:54 AM,66.0,57.0,73,30.12,10.0,NNE,8.1,-,N/A,,Clear,30,2013-08-18 04:54:00
1:54 AM,66.0,57.0,73,30.13,10.0,NE,6.9,-,N/A,,Scattered Clouds,40,2013-08-18 05:54:00
2:54 AM,64.9,57.0,75,30.12,10.0,NE,4.6,-,N/A,,Scattered Clouds,50,2013-08-18 06:54:00
3:54 AM,64.0,57.0,78,30.12,10.0,NE,5.8,-,N/A,,Partly Cloudy,40,2013-08-18 07:54:00
4:54 AM,63.0,57.0,81,30.12,10.0,NE,4.6,-,N/A,,Partly Cloudy,50,2013-08-18 08:54:00
5:54 AM,62.1,57.0,84,30.12,10.0,NE,4.6,-,N/A,,Partly Cloudy,40,2013-08-18 09:54:00
6:54 AM,62.1,57.0,84,30.13,9.0,NE,5.8,-,N/A,,Partly Cloudy,50,2013-08-18 10:54:00
7:54 AM,63.0,57.9,84,30.16,6.0,ENE,3.5,-,N/A,,Haze,60,2013-08-18 11:54:00
8:54 AM,66.9,59.0,76,30.17,7.0,ENE,3.5,-,N/A,,Partly Cloudy,70,2013-08-18 12:54:00
9:54 AM,70.0,60.1,71,30.18,6.0,NE,3.5,-,N/A,,Haze,40,2013-08-18 13:54:00
10:54 AM,75.0,59.0,57,30.18,10.0,ESE,5.8,-,N/A,,Scattered Clouds,110,2013-08-18 14:54:00
11:54 AM,78.1,57.0,48,30.17,10.0,SE,8.1,-,N/A,,Scattered Clouds,130,2013-08-18 15:54:00
12:54 PM,80.1,55.0,42,30.15,10.0,East,8.1,-,N/A,,Scattered Clouds,80,2013-08-18 16:54:00
1:54 PM,80.1,55.9,43,30.14,10.0,East,9.2,-,N/A,,Mostly Cloudy,90,2013-08-18 17:54:00
2:54 PM,81.0,55.0,41,30.12,10.0,East,5.8,-,N/A,,Mostly Cloudy,90,2013-08-18 18:54:00
3:54 PM,80.1,55.0,42,30.12,10.0,Calm,Calm,-,N/A,,Mostly Cloudy,0,2013-08-18 19:54:00
4:54 PM,82.0,55.0,39,30.10,10.0,East,5.8,-,N/A,,Mostly Cloudy,90,2013-08-18 20:54:00
5:54 PM,81.0,55.9,42,30.09,10.0,SSE,4.6,-,N/A,,Scattered Clouds,160,2013-08-18 21:54:00
6:54 PM,80.1,55.9,43,30.09,10.0,SE,6.9,-,N/A,,Mostly Cloudy,140,2013-08-18 22:54:00
7:54 PM,78.1,55.9,46,30.08,10.0,South,4.6,-,N/A,,Scattered Clouds,190,2013-08-18 23:54:00
8:54 PM,75.9,57.0,52,30.09,10.0,South,5.8,-,N/A,,Mostly Cloudy,180,2013-08-19 00:54:00
9:54 PM,72.0,57.9,61,30.11,10.0,WSW,4.6,-,N/A,,Mostly Cloudy,240,2013-08-19 01:54:00
10:54 PM,73.0,57.0,57,30.11,10.0,Calm,Calm,-,N/A,,Scattered Clouds,0,2013-08-19 02:54:00
11:54 PM,69.1,57.9,68,30.11,10.0,Calm,Calm,-,N/A,,Scattered Clouds,0,2013-08-19 03:54:00